CAPE
0 0 0 0 0 0 0 0 0 0 0 0 0 0 0 0 0 0 0 0 0 0 0 0 0 0 0 0 0 0 39 155 138 100 45 25 9 2 1 1 0 0 0 0
0 0 0 0 0 0 0 0 0 0 0 0 0 0 0 0 0 0 0 0 0 0 0 0 0 0 0 0 0 0 0 13 73 148 106 87 31 3 1 1 1 1 1 0
0 0 0 0 0 0 0 0 0 0 0 0 0 0 0 0 0 0 0 0 0 0 0 0 0 0 0 0 0 0 0 0 7 86 105 12 4 0 0 1 1 1 0 1
0 0 0 0 0 0 0 0 0 0 0 0 0 0 0 0 0 0 0 0 0 0 0 0 0 0 0 0 0 0 0 0 0 34 111 31 68 18 0 0 2 1 1 2
0 0 0 0 0 0 0 0 0 0 0 0 0 0 0 0 0 0 0 0 0 0 0 0 0 0 0 0 0 0 0 0 0 0 47 19 14 6 1 0 0 0 1 2
0 0 0 0 0 0 0 0 0 0 0 0 0 0 0 0 0 0 0 0 0 0 0 0 0 0 0 0 0 0 0 0 0 0 3 22 1 1 0 0 0 0 0 0
0 0 0 0 0 0 0 0 0 0 0 0 0 0 0 0 0 0 0 0 0 0 0 0 0 0 0 0 0 0 0 0 0 0 4 1 0 0 0 0 0 0 0 0
0 0 0 0 0 0 0 0 0 0 0 0 0 0 0 0 0 0 0 0 0 0 0 0 0 0 0 0 0 0 0 0 0 0 0 0 0 0 0 0 0 0 0 1
0 0 0 0 0 0 0 0 0 0 0 0 0 0 0 0 0 0 0 0 0 0 0 0 0 0 0 0 0 0 0 0 1 2 0 0 0 0 0 0 0 0 0 0
0 0 0 0 0 0 0 0 0 0 0 0 0 0 0 0 0 0 0 0 0 0 0 0 0 0 0 0 0 0 0 0 1 0 0 0 0 0 0 0 0 0 0 0
0 0 0 0 0 0 0 0 0 0 0 0 0 0 0 0 0 0 0 0 0 0 0 0 0 0 0 0 0 0 0 0 0 0 0 0 0 0 0 0 0 0 0 0
0 0 0 0 0 0 0 0 0 0 0 0 0 0 0 0 0 0 0 0 0 0 0 0 0 0 0 0 0 0 0 0 0 0 0 0 0 0 0 0 0 0 0 0
0 0 0 0 0 0 0 0 0 0 0 0 0 0 0 0 0 0 0 0 0 0 0 0 0 0 0 0 0 0 0 0 0 0 0 0 0 0 0 0 0 0 0 0
0 0 0 0 0 0 0 0 0 0 0 0 0 0 0 0 0 0 0 0 0 0 0 0 0 0 0 0 0 0 0 0 0 0 0 0 0 0 0 0 0 0 0 0
0 0 0 0 0 0 0 0 0 0 0 0 0 0 0 0 0 0 0 0 0 0 0 0 0 0 0 0 0 0 0 0 0 0 0 0 0 0 0 0 0 0 0 0
0 0 0 0 0 0 0 0 0 0 0 0 0 0 0 0 0 0 0 0 0 0 0 0 0 0 0 0 0 0 0 0 0 0 0 0 0 0 0 0 0 0 0 0
0 0 0 0 0 0 0 0 0 0 0 0 0 0 0 0 0 0 0 0 0 0 0 0 0 0 0 0 0 0 0 0 0 0 0 0 0 0 0 0 0 0 0 0
0 0 0 0 0 0 0 0 0 0 0 0 0 0 0 0 0 0 0 0 0 0 0 0 0 0 0 0 0 0 0 0 0 0 0 0 0 0 0 0 0 0 0 0
0 0 0 0 0 0 0 0 0 0 0 0 0 0 0 0 0 0 0 0 0 0 0 0 0 0 0 0 0 0 0 0 0 0 0 0 0 0 0 0 0 0 0 0
0 1 0 0 0 0 0 0 0 0 0 0 0 0 0 0 0 0 0 0 0 0 0 0 0 0 0 0 0 0 0 0 0 0 0 0 0 0 0 0 0 0 0 0
0 1 0 0 0 0 0 0 0 0 0 0 0 0 0 0 0 0 0 0 0 0 0 0 0 0 0 0 0 0 0 0 0 0 0 0 0 0 0 0 0 0 0 0
0 0 0 0 0 0 0 0 0 0 0 0 0 0 0 0 0 0 0 0 0 0 0 0 0 0 0 0 0 0 0 0 0 0 0 0 0 0 0 0 0 0 0 0
0 0 0 0 0 0 0 0 0 0 0 0 0 0 0 0 0 0 0 0 0 0 0 0 0 0 0 0 0 0 0 0 0 0 0 0 0 0 0 0 0 0 0 0
0 0 0 0 0 0 0 0 0 0 0 0 0 0 0 0 0 0 0 0 0 0 0 0 0 0 0 0 0 0 0 0 0 0 0 0 0 0 0 0 0 0 0 0
0 0 0 0 0 0 0 0 0 0 0 0 0 0 0 0 0 0 0 0 0 0 0 0 0 0 0 0 0 0 0 0 0 0 0 0 0 0 0 0 0 0 0 0
0 0 0 0 0 0 0 0 0 0 0 0 0 0 0 0 0 0 0 0 0 0 0 0 0 0 0 0 0 0 0 0 0 0 0 0 0 0 0 0 0 0 0 1
CIN
0 0 0 0 0 0 0 0 0 0 0 0 0 0 0 0 0 0 0 0 0 0 0 0 0 0 0 0 0 0 -608 -457 -385 -391 -424 -436 -458 0 0 0 0 0 0 0
0 0 0 0 0 0 0 0 0 0 0 0 0 0 0 0 0 0 0 0 0 0 0 0 0 0 0 0 0 0 0 -605 -519 -389 -387 -371 -390 0 0 0 0 0 0 0
0 0 0 0 0 0 0 0 0 0 0 0 0 0 0 0 0 0 0 0 0 0 0 0 0 0 0 0 0 0 0 0 -648 -495 -375 -211 -206 0 0 0 0 0 0 0
0 0 0 0 0 0 0 0 0 0 0 0 0 0 0 0 0 0 0 0 0 0 0 0 0 0 0 0 0 0 0 0 0 -600 -418 -476 -362 -379 0 0 0 0 0 0
0 0 0 0 0 0 0 0 0 0 0 0 0 0 0 0 0 0 0 0 0 0 0 0 0 0 0 0 0 0 0 0 0 0 -473 -456 -438 -379 -3 -4 0 0 0 0
0 0 0 0 0 0 0 0 0 0 0 0 0 0 0 0 0 0 0 0 0 0 0 0 0 0 0 0 0 0 0 0 0 0 -112 -428 0 -1 0 0 0 0 0 0
0 0 0 0 0 0 0 0 0 0 0 0 0 0 0 0 0 0 0 0 0 0 0 0 0 0 0 0 0 0 0 0 0 0 -1 -2 0 -2 0 0 0 0 0 0
0 0 0 0 0 0 0 0 0 0 0 0 0 0 0 0 0 0 0 0 0 0 0 0 0 0 0 0 0 0 0 0 0 0 0 0 -1 0 0 0 0 0 0 0
0 0 0 0 0 0 0 0 0 0 0 0 0 0 0 0 0 0 0 0 0 0 0 0 0 0 0 0 0 0 0 0 0 0 0 0 0 0 0 0 0 0 0 0
0 0 0 0 0 0 0 0 0 0 0 0 0 0 0 0 0 0 0 0 0 0 0 0 0 0 0 0 0 0 0 0 0 0 0 0 0 0 0 0 0 0 0 0
0 0 0 0 0 0 0 0 0 0 0 0 0 0 0 0 0 0 0 0 0 0 0 0 0 0 0 0 0 0 0 0 0 0 0 0 0 0 0 0 0 0 0 0
0 0 0 0 0 0 0 0 0 0 0 0 0 0 0 0 0 0 0 0 0 0 0 0 0 0 0 0 0 0 0 0 0 0 0 0 0 0 0 0 0 0 0 0
0 0 0 0 0 0 0 0 0 0 0 0 0 0 0 0 0 0 0 0 0 0 0 0 0 0 0 0 0 0 0 0 0 0 0 0 0 0 0 0 0 0 0 0
0 0 0 0 0 0 0 0 0 0 0 0 0 0 0 0 0 0 0 0 0 0 0 0 0 0 0 0 0 0 0 0 0 0 0 0 0 0 0 0 0 0 0 0
0 0 0 0 0 0 0 0 0 0 0 0 0 0 0 0 0 0 0 0 0 0 0 0 0 0 0 0 0 0 0 0 0 0 0 0 0 0 0 0 0 0 0 0
0 0 0 0 0 0 0 0 0 0 0 0 0 0 0 0 0 0 0 0 0 0 0 0 0 0 0 0 0 0 0 0 0 0 0 0 0 0 0 0 0 0 0 0
0 0 0 0 0 0 0 0 0 0 0 0 0 0 0 0 0 0 0 0 0 0 0 0 0 0 0 0 0 0 0 0 0 0 0 0 0 0 0 0 0 0 0 0
0 0 0 0 0 0 0 0 0 0 0 0 0 0 0 0 0 0 0 0 0 0 0 0 0 0 0 0 0 0 0 0 0 0 0 0 0 0 0 0 0 0 0 0
0 0 0 0 0 0 0 0 0 0 0 0 0 0 0 0 0 0 0 0 0 0 0 0 0 0 0 0 0 0 0 0 0 0 0 0 0 0 0 0 0 0 0 0
0 -4 0 0 0 0 0 0 0 0 0 0 0 0 0 0 0 0 0 0 0 0 0 0 0 0 0 0 0 0 0 0 0 0 0 0 0 0 0 0 0 0 0 0
0 -1 0 0 0 0 0 0 0 0 0 0 0 0 0 0 0 0 0 0 0 0 0 0 0 0 0 0 0 0 0 0 0 0 0 0 0 0 0 0 0 0 0 0
0 -1 -1 0 0 0 0 0 0 0 0 0 0 0 0 0 0 0 0 0 0 0 0 0 0 0 0 0 0 0 0 0 0 0 0 0 0 0 0 0 0 0 0 0
0 0 0 0 0 0 0 0 0 0 0 0 0 0 0 0 0 0 0 0 0 0 0 0 0 0 0 0 0 0 0 0 0 0 0 0 0 0 0 0 0 0 0 0
0 0 0 0 0 0 0 0 0 0 0 0 0 0 0 0 0 0 0 0 0 0 0 0 0 0 0 0 0 0 0 0 0 0 0 0 0 0 0 0 0 0 0 0
0 0 0 0 0 0 0 0 0 0 0 0 0 0 0 0 0 0 0 0 0 0 0 0 0 0 0 0 0 0 0 0 0 0 0 0 0 0 0 0 0 0 0 0
0 0 0 0 0 0 0 0 0 0 0 0 0 0 0 0 0 0 0 0 0 0 0 0 0 0 0 0 0 0 0 0 0 0 0 0 0 0 0 0 0 0 0 0
Wind_Speed
20 23 22 22 24 25 24 27 28 26 26 29 33 36 35 32 31 33 31 27 22 19 23 23 22 20 13 13 12 12 11 12 11 10 10 9 9 8 7 8 7 7 7 7
21 28 21 18 21 24 26 28 29 25 27 29 33 40 38 36 33 29 30 30 24 26 29 26 26 25 20 16 14 15 14 13 13 13 12 11 10 10 10 10 10 10 9 9
26 25 21 20 22 23 26 28 28 29 26 29 34 42 37 31 29 29 27 29 32 33 38 38 34 31 28 19 18 17 17 16 15 14 12 13 12 14 12 12 12 12 12 12
31 26 21 23 26 23 28 27 28 30 30 37 28 42 34 30 33 30 30 29 27 27 28 31 32 31 28 26 22 18 18 19 17 15 15 15 15 15 14 13 12 13 12 13
32 27 26 27 26 22 27 19 22 25 27 31 31 35 34 24 27 28 24 24 20 23 25 26 26 27 26 25 23 21 17 17 17 16 16 16 17 16 15 14 14 14 15 15
32 26 27 28 24 23 16 18 20 23 25 38 32 31 41 30 27 23 17 15 19 21 21 20 20 21 22 22 21 19 16 15 15 15 16 17 17 17 16 16 16 16 17 17
34 33 28 22 25 23 25 22 29 33 32 37 27 29 43 28 22 19 19 22 22 19 18 18 18 18 19 21 20 19 16 16 15 15 16 16 17 17 17 17 18 18 19 20
41 43 34 29 29 29 27 27 32 39 38 36 28 38 37 29 28 27 28 27 24 19 18 18 19 20 20 20 20 18 16 15 14 13 14 15 15 16 17 18 19 20 21 21
38 43 29 29 28 24 31 36 29 32 32 37 35 39 40 35 31 27 26 22 22 20 19 19 20 20 20 21 20 19 18 17 15 13 13 14 14 15 16 17 18 19 19 20
32 37 33 30 25 28 31 25 34 33 42 44 42 44 42 30 26 23 22 20 21 21 20 20 20 21 21 21 21 20 18 16 16 14 13 12 12 14 15 16 17 19 20 21
28 32 32 27 35 35 30 34 32 31 35 41 46 47 36 34 27 25 22 21 19 19 20 20 20 20 20 21 20 19 17 16 15 14 13 13 13 14 15 16 18 19 19 20
32 33 39 38 31 30 34 35 34 38 39 39 41 50 28 25 22 19 19 18 18 19 20 20 19 19 19 20 20 18 17 16 15 14 13 12 12 13 14 16 18 19 21 21
29 34 37 37 37 33 38 35 33 33 32 39 41 52 30 31 28 24 22 21 21 20 20 19 18 18 17 17 16 16 15 14 14 13 13 14 15 16 17 18 19 20 22 23
23 32 39 44 38 32 39 37 35 36 44 45 45 44 36 28 25 25 23 22 22 22 21 19 18 17 16 16 16 16 15 15 15 15 16 18 19 20 21 22 23 24 24 25
24 34 36 39 34 32 34 37 37 40 42 43 41 47 40 33 28 26 22 22 22 21 20 19 18 17 17 17 17 17 17 18 17 17 18 20 22 22 23 24 26 27 27 28
28 34 32 39 35 33 38 38 37 36 39 41 46 54 30 28 27 27 24 23 23 22 20 19 19 18 18 18 17 17 17 18 18 19 21 21 23 25 27 28 30 30 29 29
28 29 30 40 32 34 44 39 35 34 33 35 41 40 33 33 30 29 27 26 24 21 20 20 18 17 16 16 17 17 17 17 18 20 22 23 24 26 26 26 26 26 27 27
24 25 28 31 24 38 34 26 26 33 34 30 36 36 31 30 28 26 23 22 21 19 18 16 14 13 14 13 14 14 15 17 19 21 23 24 25 26 26 27 27 28 28 28
16 19 20 24 27 30 32 23 20 21 29 27 31 31 28 26 25 28 20 18 16 15 14 14 12 12 12 14 15 15 17 18 21 23 25 27 27 28 28 29 29 28 28 28
22 22 26 27 34 38 28 22 21 19 43 25 23 25 25 22 30 28 16 12 11 11 12 12 12 13 14 16 17 18 19 20 22 24 27 28 28 29 30 30 30 29 29 30
27 27 30 30 33 35 28 22 17 27 30 23 21 19 18 22 25 16 9 10 10 11 11 12 13 15 16 18 18 19 20 23 25 27 28 28 29 30 30 31 31 32 33 32
29 29 33 33 34 41 21 19 26 26 23 23 20 16 15 14 13 9 9 10 11 11 13 14 15 16 18 19 20 22 24 26 27 29 29 30 30 31 31 32 33 33 34 35
37 32 34 32 36 29 23 27 22 21 23 24 22 17 14 12 11 10 10 11 12 13 14 15 16 17 20 21 22 25 27 28 29 29 30 31 32 33 33 35 36 37 36 37
33 28 33 32 33 30 28 26 24 24 26 24 22 17 14 14 12 12 11 11 12 14 16 16 17 20 22 24 25 26 28 29 30 32 33 33 35 36 36 36 36 38 39 39
31 26 33 36 32 28 28 29 28 26 25 22 17 17 16 13 14 13 13 12 13 14 16 17 19 21 25 27 28 28 29 31 33 34 36 37 38 39 41 40 40 40 38 38
32 33 36 39 29 29 30 27 25 25 25 22 19 18 17 15 14 13 13 13 14 15 17 20 23 25 27 28 29 29 31 33 35 37 38 40 41 42 42 44 44 38 38 38
Wind_Direction
255 254 249 253 258 262 264 264 264 271 274 274 273 272 276 281 285 283 288 292 295 295 291 289 286 284 275 264 248 240 236 229 230 232 234 242 235 237 236 237 236 241 240 239
256 253 256 258 258 262 263 264 266 276 275 277 278 273 277 280 284 288 289 290 292 290 284 287 286 284 284 274 254 253 240 242 236 238 242 250 255 257 260 262 257 253 256 254
251 265 252 254 257 259 264 264 267 271 281 281 281 274 278 285 289 291 291 289 286 284 275 275 282 284 285 279 272 261 252 249 243 242 255 276 276 289 273 264 263 258 258 258
256 259 252 253 258 261 264 268 270 271 276 270 284 273 278 286 286 291 290 290 294 294 292 286 285 285 287 286 287 278 269 259 255 250 251 252 259 272 270 273 272 277 266 269
254 253 251 255 259 259 269 273 271 274 275 277 276 278 277 289 290 291 295 299 302 302 302 297 294 291 291 294 290 289 280 268 262 255 252 256 261 271 284 280 277 282 281 281
255 260 257 257 262 258 260 270 277 279 278 271 272 275 272 282 290 296 304 310 307 309 310 313 312 305 301 303 302 300 294 281 269 261 258 260 266 271 277 281 285 289 291 292
253 253 258 259 255 257 259 257 268 270 270 271 278 275 269 283 287 292 295 299 305 313 317 321 323 323 318 313 310 311 307 297 286 276 271 266 270 274 277 285 290 293 296 298
247 252 249 253 256 254 252 255 262 267 269 273 277 272 275 281 283 288 292 294 297 303 312 317 319 320 320 320 319 319 317 311 305 294 288 285 282 282 287 291 295 298 300 303
251 254 260 255 257 249 256 256 264 271 277 274 274 276 277 279 283 287 292 295 299 303 309 313 317 319 317 317 318 318 317 315 312 306 301 296 295 295 296 300 304 307 310 312
256 258 261 256 259 260 256 255 262 264 265 268 272 273 272 284 282 288 294 295 302 304 308 312 315 317 317 317 319 319 318 316 315 317 315 311 308 307 307 308 308 310 312 314
251 259 263 256 252 248 253 255 261 265 265 269 272 273 282 279 280 280 289 297 304 306 309 314 321 322 318 315 316 318 319 319 318 318 316 317 316 315 314 313 313 315 319 321
248 259 257 255 264 261 258 257 253 259 263 266 271 272 284 287 285 291 294 299 307 313 315 323 326 324 321 317 317 316 317 318 318 319 322 324 328 327 322 321 319 321 320 320
239 252 253 258 260 261 256 258 256 261 270 264 268 274 284 282 284 287 291 296 301 308 312 319 323 323 325 325 324 324 324 326 327 329 329 329 329 326 322 320 319 320 320 320
238 251 247 251 261 259 258 257 258 258 263 266 267 272 280 282 281 285 289 290 294 299 304 310 318 322 324 327 328 325 324 324 324 323 323 323 323 322 320 320 319 319 318 317
249 255 254 257 262 264 264 260 256 256 259 264 257 271 273 273 276 280 283 287 291 295 300 304 309 317 320 323 323 321 319 320 320 322 324 323 323 323 322 321 319 317 315 314
255 259 258 258 259 264 265 266 263 257 260 263 269 270 283 277 280 280 281 284 286 290 294 300 308 312 316 317 318 319 321 321 323 323 322 325 324 322 320 318 317 315 315 316
249 254 258 262 263 267 268 259 262 266 264 267 266 267 280 280 278 276 275 280 282 286 293 299 303 307 314 318 318 317 321 324 326 325 327 328 328 326 325 327 326 324 322 322
253 250 260 267 263 260 273 281 261 261 269 266 273 278 279 280 283 283 279 276 279 285 291 297 304 313 319 326 332 334 333 331 329 329 330 331 331 330 329 329 328 326 325 324
256 255 263 265 263 276 274 279 271 274 277 266 272 276 279 282 285 283 284 282 281 285 291 299 311 319 324 326 328 329 330 329 329 327 327 327 328 327 327 327 327 327 325 324
258 264 263 270 267 267 276 281 281 286 278 289 278 273 273 275 276 282 281 280 283 290 296 300 310 318 321 322 324 325 325 326 325 325 324 324 325 324 323 324 324 325 324 322
254 259 258 265 269 274 275 282 280 273 288 300 296 286 277 273 281 292 273 282 288 294 299 308 312 314 317 319 320 320 321 320 322 322 322 322 322 322 322 322 323 322 321 321
254 259 264 265 266 269 274 273 270 282 292 298 303 302 293 290 295 285 278 279 284 290 299 305 307 311 317 319 318 315 316 319 319 318 318 319 319 319 319 320 320 320 320 320
262 265 267 265 269 280 272 281 279 288 291 294 296 297 294 292 289 282 280 282 287 292 298 303 304 307 314 317 318 313 315 317 316 316 316 317 317 318 318 317 316 316 318 317
265 269 268 270 272 274 272 276 285 283 289 292 291 286 283 284 280 281 281 282 285 291 297 301 303 305 308 313 316 316 315 316 315 314 314 315 314 315 316 316 316 315 315 315
268 267 268 271 277 281 280 277 279 285 287 286 286 284 280 275 277 276 279 282 287 294 300 304 305 306 308 311 312 315 314 313 311 311 311 312 312 313 313 313 314 313 315 314
266 268 267 271 279 281 283 279 277 277 277 276 277 279 280 278 273 274 279 286 290 294 300 303 306 308 309 310 312 313 314 313 311 310 311 311 311 312 313 313 313 316 314 314